Location: Berlin
(42.3812°N, 71.6370°W)
Time: 22:40:36
(UTC+00:00)

ACS3 Solar Sail - Pass Details

Date: 15 November 2025
Orbit: 888 x 1001 km, 97.3° (Epoch: 12 December)

Event Time Altitude Azimuth Distance (km) Brightness Sun altitude
Rises 09:14:01 0° 1° (N) 3,555 4.8 -26.5°
Reaches altitude 10° 09:16:41 10° 351° (N) 2,626 3.9 -26.0°
Enters shadow 09:17:14 12° 348° (NNW) 2,454 3.8 -25.9°
